M I D A S
Marine Information and Data Acquisition System
Tripno 365 of the Zeeleeuw from 2002-11-26 08:20:16 to 2002-11-26 14:46:04
Back to CruiseResearch ActivitiesStationsMapUnderway DataData graphs

EquipmentUnitsComments
TimeDGPSUTC
LatitudeDGPSDM.mWGS84
LongitudeDGPSDM.mWGS84
SpeedMeteo Stationm/sRelative wind speed
DirectionMeteo StationdegRelative wind direction
TemperatureMeteo Stationdeg CelciusAir temperature
PressureMeteo StationPaAtmospheric pressure
HumidityMeteo Station%Relative humidity
Missing or incorrect values are displayed as -999
Metereological data collected by the RV Zeeleeuw from 2002-11-26 08:20:16 to 2002-11-26 14:46:04
                                                                                    Next 1000 lines
Time Latitude Longitude Speed Direction Temperature Pressure Humidity
2002-11-26 08:20:25 51°13.705 2°55.755 0.4 60 6.1 101260 90
2002-11-26 08:20:30 51°13.707 2°55.757 0.7 120 6.2 101260 90
2002-11-26 08:20:36 51°13.708 2°55.758 0.7 354 6.2 101260 90
2002-11-26 08:20:42 51°13.709 2°55.758 0.6 128 6.2 101260 90
2002-11-26 08:20:46 51°13.71 2°55.758 1.9 32 6.2 101260 90
2002-11-26 08:20:51 51°13.71 2°55.758 1.6 338 6.2 101260 90
2002-11-26 08:20:55 51°13.71 2°55.757 2 60 6.2 101260 90
2002-11-26 08:21:01 51°13.71 2°55.755 1.7 75 6.2 101260 90
2002-11-26 08:21:06 51°13.709 2°55.753 2 62 6.2 101260 90
2002-11-26 08:21:11 51°13.708 2°55.751 2.6 60 6.2 101260 90
2002-11-26 08:21:16 51°13.706 2°55.749 2.6 60 6.2 101260 90
2002-11-26 08:21:21 51°13.705 2°55.747 2.5 69 6.2 101260 90
2002-11-26 08:21:27 51°13.703 2°55.744 1.7 52 6.2 101260 90
2002-11-26 08:21:31 51°13.701 2°55.743 1.6 64 6.2 101260 90
2002-11-26 08:21:37 51°13.7 2°55.74 1.9 57 6.2 101260 90
2002-11-26 08:21:43 51°13.698 2°55.738 2.9 45 6.2 101260 90
2002-11-26 08:21:47 51°13.698 2°55.737 1.9 49 6.2 101260 90
2002-11-26 08:21:52 51°13.697 2°55.736 1.8 51 6.2 101260 91
2002-11-26 08:21:57 51°13.697 2°55.735 0.9 20 6.2 101260 91
2002-11-26 08:22:01 51°13.697 2°55.735 0.5 332 6.2 101260 91
2002-11-26 08:22:06 51°13.698 2°55.734 0.6 18 6.2 101260 91
2002-11-26 08:22:11 51°13.699 2°55.734 0.6 23 6.3 101260 91
2002-11-26 08:22:15 51°13.7 2°55.733 0.9 272 6.3 101260 91
2002-11-26 08:22:21 51°13.703 2°55.732 0.8 283 6.3 101260 91
2002-11-26 08:22:27 51°13.705 2°55.73 0.9 263 6.3 101260 91
2002-11-26 08:22:32 51°13.708 2°55.728 0.9 302 6.3 101270 91
2002-11-26 08:22:37 51°13.712 2°55.726 1.2 251 6.3 101270 91
2002-11-26 08:22:41 51°13.715 2°55.724 1.8 245 6.3 101260 91
2002-11-26 08:22:46 51°13.719 2°55.721 1.9 247 6.3 101260 91
2002-11-26 08:22:50 51°13.723 2°55.718 1.9 256 6.3 101260 91
2002-11-26 08:22:56 51°13.729 2°55.713 1.5 266 6.3 101260 91
2002-11-26 08:23:01 51°13.735 2°55.709 2.6 290 6.3 101270 91
2002-11-26 08:23:07 51°13.742 2°55.703 2 279 6.3 101270 91
2002-11-26 08:23:12 51°13.749 2°55.698 2.5 289 6.3 101260 91
2002-11-26 08:23:16 51°13.754 2°55.693 2.6 277 6.3 101260 91
2002-11-26 08:23:21 51°13.761 2°55.688 3.2 285 6.3 101260 91
2002-11-26 08:23:25 51°13.767 2°55.682 3.4 264 6.3 101260 91
2002-11-26 08:23:31 51°13.776 2°55.675 3.5 263 6.3 101270 91
2002-11-26 08:23:37 51°13.785 2°55.668 3.1 267 6.3 101270 91
2002-11-26 08:23:41 51°13.792 2°55.663 2.9 265 6.3 101260 91
2002-11-26 08:23:47 51°13.802 2°55.656 2.6 251 6.3 101260 91
2002-11-26 08:23:51 51°13.808 2°55.652 4.1 262 6.4 101260 91
2002-11-26 08:23:56 51°13.817 2°55.646 4.1 285 6.4 101260 91
2002-11-26 08:24:01 51°13.826 2°55.64 4.3 280 6.4 101260 91
2002-11-26 08:24:06 51°13.835 2°55.635 4.4 284 6.4 101260 91
2002-11-26 08:24:11 51°13.844 2°55.629 3.2 271 6.4 101270 91
2002-11-26 08:24:16 51°13.853 2°55.623 3.8 268 6.4 101270 91
2002-11-26 08:24:22 51°13.864 2°55.614 3.6 277 6.4 101260 91
2002-11-26 08:24:27 51°13.873 2°55.608 3.2 276 6.4 101260 91
2002-11-26 08:24:31 51°13.881 2°55.602 2.5 267 6.4 101270 91
2002-11-26 08:24:35 51°13.888 2°55.597 2 283 6.4 101270 91
2002-11-26 08:24:42 51°13.901 2°55.589 2 284 6.4 101270 91
2002-11-26 08:24:46 51°13.908 2°55.583 2.6 253 6.4 101270 91
2002-11-26 08:24:52 51°13.919 2°55.575 2.8 263 6.4 101270 91
2002-11-26 08:24:56 51°13.927 2°55.57 2.7 272 6.4 101270 91
2002-11-26 08:25:01 51°13.936 2°55.563 2.9 272 6.4 101260 91
2002-11-26 08:25:05 51°13.944 2°55.558 3.9 255 6.4 101260 91
2002-11-26 08:25:11 51°13.955 2°55.55 4.4 249 6.5 101270 91
2002-11-26 08:25:15 51°13.962 2°55.545 4.7 264 6.5 101270 91
2002-11-26 08:25:21 51°13.974 2°55.537 3.8 277 6.5 101270 91
2002-11-26 08:25:26 51°13.983 2°55.53 3.8 262 6.5 101270 91
2002-11-26 08:25:31 51°13.993 2°55.523 4.3 257 6.5 101270 91
2002-11-26 08:25:36 51°14.002 2°55.517 3.7 288 6.5 101270 91
2002-11-26 08:25:40 51°14.01 2°55.511 3.4 295 6.5 101270 91
2002-11-26 08:25:46 51°14.02 2°55.502 2.7 276 6.5 101270 91
2002-11-26 08:25:51 51°14.03 2°55.494 1.9 278 6.5 101270 91
2002-11-26 08:25:57 51°14.041 2°55.486 2.7 276 6.5 101270 91
2002-11-26 08:26:01 51°14.048 2°55.48 2.4 255 6.5 101270 91
2002-11-26 08:26:07 51°14.059 2°55.471 2.6 269 6.5 101270 91
2002-11-26 08:26:11 51°14.067 2°55.465 2.2 251 6.5 101270 91
2002-11-26 08:26:16 51°14.076 2°55.458 3.8 286 6.5 101270 91
2002-11-26 08:26:20 51°14.084 2°55.452 3.7 288 6.5 101260 91
2002-11-26 08:26:25 51°14.093 2°55.444 3.3 296 6.5 101260 91
2002-11-26 08:26:32 51°14.107 2°55.433 3 291 6.6 101270 91
2002-11-26 08:26:36 51°14.115 2°55.426 2.1 275 6.6 101270 91
2002-11-26 08:26:42 51°14.126 2°55.416 3.2 253 6.6 101270 91
2002-11-26 08:26:46 51°14.134 2°55.41 3 249 6.6 101270 91
2002-11-26 08:26:51 51°14.144 2°55.401 2.6 247 6.6 101270 91
2002-11-26 08:26:56 51°14.155 2°55.393 3.7 260 6.6 101270 91
2002-11-26 08:27:01 51°14.165 2°55.385 3.1 260 6.6 101270 91
2002-11-26 08:27:06 51°14.175 2°55.375 3.3 249 6.6 101270 91
2002-11-26 08:27:11 51°14.185 2°55.365 3.6 271 6.6 101270 91
2002-11-26 08:27:16 51°14.196 2°55.355 4.9 258 6.6 101270 91
2002-11-26 08:27:21 51°14.206 2°55.344 3.9 259 6.7 101270 91
2002-11-26 08:27:26 51°14.216 2°55.332 4.7 271 6.7 101270 91
2002-11-26 08:27:31 51°14.225 2°55.319 4.8 262 6.7 101270 91
2002-11-26 08:27:36 51°14.235 2°55.306 4.7 274 6.7 101270 91
2002-11-26 08:27:41 51°14.244 2°55.293 5.4 268 6.7 101260 91
2002-11-26 08:27:45 51°14.251 2°55.281 4.6 260 6.7 101260 91
2002-11-26 08:27:51 51°14.261 2°55.262 4.8 258 6.7 101270 91
2002-11-26 08:27:57 51°14.271 2°55.243 5.9 261 6.7 101270 91
2002-11-26 08:28:01 51°14.278 2°55.23 6 265 6.7 101270 91
2002-11-26 08:28:06 51°14.286 2°55.214 5.7 268 6.7 101270 91
2002-11-26 08:28:11 51°14.295 2°55.197 6.9 258 6.8 101260 91
2002-11-26 08:28:15 51°14.301 2°55.184 8.1 274 6.8 101260 91
2002-11-26 08:28:21 51°14.312 2°55.165 7.6 272 6.8 101260 91
2002-11-26 08:28:26 51°14.32 2°55.148 7.6 271 6.8 101260 91
2002-11-26 08:28:31 51°14.328 2°55.13 6.6 271 6.8 101270 91
2002-11-26 08:28:36 51°14.337 2°55.113 7.2 259 6.8 101270 91
2002-11-26 08:28:41 51°14.346 2°55.096 7.4 261 6.9 101260 91
2002-11-26 08:28:47 51°14.358 2°55.077 6.2 281 6.9 101260 91
2002-11-26 08:28:51 51°14.367 2°55.064 6.8 280 6.9 101260 91
2002-11-26 08:28:56 51°14.378 2°55.05 6.5 284 6.9 101260 91
2002-11-26 08:29:01 51°14.391 2°55.037 6.4 287 6.9 101260 91
2002-11-26 08:29:06 51°14.404 2°55.025 6.4 293 6.9 101260 91
2002-11-26 08:29:11 51°14.417 2°55.014 6.4 291 6.9 101260 91
2002-11-26 08:29:16 51°14.431 2°55.002 6.6 288 6.9 101260 91
2002-11-26 08:29:21 51°14.444 2°54.99 6.3 288 7 101260 91
2002-11-26 08:29:26 51°14.458 2°54.977 6.7 288 7 101260 91
2002-11-26 08:29:31 51°14.472 2°54.964 7 284 7 101270 91
2002-11-26 08:29:36 51°14.486 2°54.95 6.6 285 7 101270 91
2002-11-26 08:29:40 51°14.498 2°54.939 6.5 284 7 101270 91
2002-11-26 08:29:46 51°14.516 2°54.923 6.3 283 7 101270 91
2002-11-26 08:29:51 51°14.531 2°54.909 6.7 281 7 101260 91
2002-11-26 08:29:56 51°14.546 2°54.894 6.6 278 7 101260 91
2002-11-26 08:30:01 51°14.561 2°54.88 6.9 274 7 101270 91
2002-11-26 08:30:06 51°14.576 2°54.866 6.2 283 7 101270 91
2002-11-26 08:30:11 51°14.592 2°54.851 6.7 283 7 101270 91
2002-11-26 08:30:17 51°14.61 2°54.833 5.8 278 7 101270 91
2002-11-26 08:30:21 51°14.622 2°54.822 5.9 277 7 101260 91
2002-11-26 08:30:26 51°14.638 2°54.807 6 276 7 101260 91
2002-11-26 08:30:31 51°14.654 2°54.792 6.2 273 6.9 101260 90
2002-11-26 08:30:36 51°14.67 2°54.776 5.6 273 6.9 101260 90
2002-11-26 08:30:40 51°14.682 2°54.765 6.9 270 6.9 101270 90
2002-11-26 08:30:46 51°14.7 2°54.747 6.8 274 6.9 101270 90
2002-11-26 08:30:51 51°14.716 2°54.732 6.1 274 7 101270 90
2002-11-26 08:30:56 51°14.731 2°54.717 6.5 274 7 101270 90
2002-11-26 08:31:00 51°14.744 2°54.705 7.2 269 6.9 101270 90
2002-11-26 08:31:06 51°14.763 2°54.688 7 279 6.9 101270 90
2002-11-26 08:31:11 51°14.779 2°54.673 7 278 6.9 101270 90
2002-11-26 08:31:16 51°14.795 2°54.658 6.6 279 6.9 101270 90
2002-11-26 08:31:20 51°14.807 2°54.646 7.5 279 6.9 101270 90
2002-11-26 08:31:26 51°14.826 2°54.629 7.8 278 6.9 101270 90
2002-11-26 08:31:31 51°14.842 2°54.614 7.3 284 7 101270 90
2002-11-26 08:31:36 51°14.858 2°54.599 7.1 284 7 101270 90
2002-11-26 08:31:40 51°14.871 2°54.588 7.6 285 7 101270 90
2002-11-26 08:31:46 51°14.89 2°54.57 7.5 280 7 101270 90
2002-11-26 08:31:51 51°14.906 2°54.556 7.1 278 7 101270 91
2002-11-26 08:31:56 51°14.922 2°54.541 8 280 7 101270 91
2002-11-26 08:32:00 51°14.935 2°54.53 7.3 278 7 101270 91
2002-11-26 08:32:06 51°14.954 2°54.512 7.2 282 7 101270 91
2002-11-26 08:32:11 51°14.969 2°54.498 6.9 277 7.1 101270 91
2002-11-26 08:32:16 51°14.985 2°54.483 7 285 7.1 101270 91
2002-11-26 08:32:20 51°14.998 2°54.472 6.7 287 7.1 101260 91
2002-11-26 08:32:26 51°15.017 2°54.455 7 282 7.1 101260 91
2002-11-26 08:32:31 51°15.033 2°54.44 6.7 280 7.1 101260 91
2002-11-26 08:32:36 51°15.048 2°54.426 7 283 7.1 101260 91
2002-11-26 08:32:40 51°15.061 2°54.414 7.2 281 7.2 101260 91
2002-11-26 08:32:46 51°15.08 2°54.397 7.4 282 7.2 101260 91
2002-11-26 08:32:51 51°15.096 2°54.382 7.1 285 7.2 101270 91
2002-11-26 08:32:56 51°15.111 2°54.368 7.1 285 7.2 101270 91
2002-11-26 08:33:01 51°15.128 2°54.353 7.4 281 7.2 101270 91
2002-11-26 08:33:06 51°15.143 2°54.339 6.3 280 7.2 101270 91
2002-11-26 08:33:11 51°15.159 2°54.324 7 283 7.2 101270 91
2002-11-26 08:33:16 51°15.175 2°54.31 6.9 281 7.2 101270 91
2002-11-26 08:33:20 51°15.188 2°54.298 6.9 277 7.2 101270 91
2002-11-26 08:33:26 51°15.207 2°54.28 7.1 281 7.2 101270 91
2002-11-26 08:33:31 51°15.224 2°54.266 7.3 284 7.3 101270 91
2002-11-26 08:33:36 51°15.24 2°54.251 7.1 279 7.3 101270 91
2002-11-26 08:33:40 51°15.252 2°54.239 7.8 280 7.2 101270 91
2002-11-26 08:33:46 51°15.272 2°54.222 7.3 274 7.2 101270 91
2002-11-26 08:33:51 51°15.288 2°54.207 6.9 282 7.3 101270 91
2002-11-26 08:33:56 51°15.305 2°54.192 7.7 280 7.3 101270 91
2002-11-26 08:34:00 51°15.318 2°54.18 8.1 279 7.3 101280 91
2002-11-26 08:34:06 51°15.337 2°54.163 7.6 279 7.3 101280 91
2002-11-26 08:34:11 51°15.354 2°54.148 7.4 278 7.3 101280 91
2002-11-26 08:34:16 51°15.37 2°54.133 7.1 278 7.3 101280 91
2002-11-26 08:34:20 51°15.383 2°54.121 7.2 276 7.3 101280 91
2002-11-26 08:34:26 51°15.402 2°54.103 6.9 275 7.3 101280 91
2002-11-26 08:34:31 51°15.418 2°54.088 7.2 279 7.4 101260 91
2002-11-26 08:34:36 51°15.435 2°54.073 7.3 279 7.4 101260 91
2002-11-26 08:34:40 51°15.448 2°54.061 7.4 278 7.4 101270 91
2002-11-26 08:34:46 51°15.467 2°54.043 7.3 275 7.4 101270 91
2002-11-26 08:34:51 51°15.483 2°54.028 7.4 281 7.4 101270 91
2002-11-26 08:34:56 51°15.5 2°54.012 7.5 280 7.4 101270 91
2002-11-26 08:35:01 51°15.516 2°53.997 6.9 282 7.4 101270 91
2002-11-26 08:35:06 51°15.532 2°53.982 6.8 280 7.4 101270 91
2002-11-26 08:35:11 51°15.548 2°53.967 7.3 278 7.4 101270 91
2002-11-26 08:35:16 51°15.564 2°53.952 7.7 277 7.4 101270 91
2002-11-26 08:35:21 51°15.581 2°53.937 7.7 279 7.5 101270 91
2002-11-26 08:35:26 51°15.597 2°53.922 8 276 7.5 101270 91
2002-11-26 08:35:31 51°15.613 2°53.907 7.7 279 7.5 101270 91
2002-11-26 08:35:36 51°15.63 2°53.892 7.8 278 7.5 101270 91
2002-11-26 08:35:40 51°15.642 2°53.879 7.5 281 7.5 101260 91
2002-11-26 08:35:46 51°15.662 2°53.862 7.9 276 7.5 101260 91
2002-11-26 08:35:51 51°15.678 2°53.847 7.6 276 7.5 101260 91
2002-11-26 08:35:56 51°15.694 2°53.832 7.6 281 7.5 101260 91
2002-11-26 08:36:00 51°15.707 2°53.82 7.6 279 7.5 101260 91
2002-11-26 08:36:06 51°15.726 2°53.802 7.3 278 7.5 101260 91
2002-11-26 08:36:11 51°15.742 2°53.787 7.3 279 7.5 101270 91
2002-11-26 08:36:16 51°15.758 2°53.772 7.3 281 7.5 101270 91
2002-11-26 08:36:20 51°15.771 2°53.759 6.9 280 7.6 101260 91
2002-11-26 08:36:26 51°15.79 2°53.741 7.2 281 7.6 101260 91
2002-11-26 08:36:31 51°15.806 2°53.725 7 279 7.6 101260 91
2002-11-26 08:36:36 51°15.822 2°53.71 7.3 279 7.6 101260 91
2002-11-26 08:36:40 51°15.834 2°53.698 7.1 276 7.6 101270 91
2002-11-26 08:36:46 51°15.854 2°53.68 6.8 278 7.6 101270 91
2002-11-26 08:36:51 51°15.869 2°53.665 7 279 7.6 101270 91
2002-11-26 08:36:56 51°15.886 2°53.649 6.6 283 7.6 101270 91
2002-11-26 08:37:01 51°15.902 2°53.634 6.8 278 7.6 101270 91
2002-11-26 08:37:06 51°15.918 2°53.619 7 280 7.6 101270 91
2002-11-26 08:37:11 51°15.935 2°53.603 6.9 280 7.6 101270 91
2002-11-26 08:37:16 51°15.951 2°53.587 7 279 7.6 101270 91
2002-11-26 08:37:20 51°15.965 2°53.575 7.3 276 7.6 101270 91
2002-11-26 08:37:26 51°15.984 2°53.556 7.1 275 7.6 101270 91
2002-11-26 08:37:31 51°16.001 2°53.541 7.8 278 7.7 101270 91
2002-11-26 08:37:36 51°16.018 2°53.525 7 273 7.7 101270 91
2002-11-26 08:37:40 51°16.032 2°53.513 7.7 277 7.7 101270 91
2002-11-26 08:37:46 51°16.052 2°53.496 7.1 275 7.7 101270 91
2002-11-26 08:37:51 51°16.069 2°53.481 6.9 278 7.7 101270 91
2002-11-26 08:37:56 51°16.086 2°53.467 6.9 279 7.7 101270 91
2002-11-26 08:38:00 51°16.1 2°53.455 7 278 7.7 101270 91
2002-11-26 08:38:06 51°16.121 2°53.439 7.1 281 7.7 101270 91
2002-11-26 08:38:11 51°16.138 2°53.424 7.4 280 7.7 101260 91
2002-11-26 08:38:16 51°16.155 2°53.409 7.4 279 7.7 101260 91
2002-11-26 08:38:20 51°16.169 2°53.398 7.1 281 7.7 101270 91
2002-11-26 08:38:26 51°16.19 2°53.38 7.5 281 7.7 101270 91
2002-11-26 08:38:31 51°16.207 2°53.366 7.3 279 7.8 101260 91
2002-11-26 08:38:36 51°16.224 2°53.352 6.9 281 7.8 101260 91
2002-11-26 08:38:40 51°16.238 2°53.34 7.1 283 7.8 101270 91
2002-11-26 08:38:46 51°16.259 2°53.322 7.5 276 7.8 101270 91
2002-11-26 08:38:51 51°16.276 2°53.308 7.5 278 7.8 101260 91
2002-11-26 08:38:56 51°16.293 2°53.293 7.2 280 7.8 101260 91
2002-11-26 08:39:00 51°16.307 2°53.281 7 281 7.8 101270 91
2002-11-26 08:39:06 51°16.328 2°53.264 7 286 7.8 101270 91
2002-11-26 08:39:11 51°16.345 2°53.249 7.4 282 7.9 101270 91
2002-11-26 08:39:16 51°16.362 2°53.234 7.1 285 7.9 101270 91
2002-11-26 08:39:20 51°16.376 2°53.222 6.5 281 7.9 101270 91
2002-11-26 08:39:26 51°16.396 2°53.205 7 281 7.9 101270 91
2002-11-26 08:39:31 51°16.413 2°53.19 7.1 282 7.9 101270 91
2002-11-26 08:39:36 51°16.431 2°53.175 6.6 287 7.9 101270 91
2002-11-26 08:39:40 51°16.445 2°53.163 6.5 285 7.9 101270 91
2002-11-26 08:39:46 51°16.465 2°53.145 6.6 290 7.9 101270 91
2002-11-26 08:39:51 51°16.483 2°53.131 6.6 283 7.9 101270 91
2002-11-26 08:39:56 51°16.5 2°53.117 6.9 276 7.9 101270 91
2002-11-26 08:40:00 51°16.514 2°53.105 6.8 283 8 101270 91
2002-11-26 08:40:06 51°16.534 2°53.088 6.5 282 8 101270 91
2002-11-26 08:40:11 51°16.552 2°53.073 6.3 283 8 101270 91
2002-11-26 08:40:16 51°16.569 2°53.059 6 286 8 101270 91
2002-11-26 08:40:21 51°16.586 2°53.044 6.6 285 8 101270 91
2002-11-26 08:40:26 51°16.603 2°53.03 6.4 284 8 101270 91
2002-11-26 08:40:31 51°16.621 2°53.016 6.2 285 8.1 101260 91
2002-11-26 08:40:36 51°16.638 2°53.001 6.5 285 8.1 101260 91
2002-11-26 08:40:41 51°16.655 2°52.987 6 284 8.1 101270 91
2002-11-26 08:40:46 51°16.672 2°52.973 6.1 281 8.1 101270 91
2002-11-26 08:40:51 51°16.689 2°52.958 6.5 284 8.1 101270 91
2002-11-26 08:40:56 51°16.707 2°52.944 6 282 8.1 101270 91
2002-11-26 08:41:00 51°16.721 2°52.932 7.1 281 8.1 101270 91
2002-11-26 08:41:06 51°16.741 2°52.915 6.8 283 8.1 101270 91
2002-11-26 08:41:11 51°16.758 2°52.901 8 276 8.1 101270 91
2002-11-26 08:41:16 51°16.775 2°52.887 7.1 284 8.1 101270 91
2002-11-26 08:41:20 51°16.789 2°52.875 7.1 283 8.2 101270 91
2002-11-26 08:41:26 51°16.809 2°52.858 7.6 283 8.2 101270 91
2002-11-26 08:41:31 51°16.826 2°52.844 7.3 281 8.2 101270 91
2002-11-26 08:41:36 51°16.843 2°52.83 7.8 285 8.2 101270 91
2002-11-26 08:41:41 51°16.86 2°52.816 7.3 278 8.2 101270 91
2002-11-26 08:41:46 51°16.877 2°52.802 8.6 283 8.2 101270 91
2002-11-26 08:41:51 51°16.894 2°52.787 7.9 283 8.3 101270 91
2002-11-26 08:41:56 51°16.911 2°52.773 8.1 285 8.3 101270 91
2002-11-26 08:42:00 51°16.924 2°52.762 8.5 285 8.3 101270 91
2002-11-26 08:42:06 51°16.945 2°52.745 8.4 289 8.3 101270 91
2002-11-26 08:42:11 51°16.962 2°52.731 8.2 284 8.4 101270 91
2002-11-26 08:42:16 51°16.979 2°52.717 7.7 280 8.4 101270 91
2002-11-26 08:42:20 51°16.993 2°52.705 8.1 283 8.4 101260 91
2002-11-26 08:42:26 51°17.013 2°52.688 7.8 278 8.4 101260 91
2002-11-26 08:42:31 51°17.031 2°52.674 8.8 280 8.5 101260 91
2002-11-26 08:42:36 51°17.049 2°52.659 8.6 283 8.5 101260 91
2002-11-26 08:42:41 51°17.066 2°52.645 8.5 283 8.5 101270 91
2002-11-26 08:42:46 51°17.083 2°52.63 8.9 286 8.5 101270 91
2002-11-26 08:42:51 51°17.101 2°52.616 8.2 286 8.5 101270 91
2002-11-26 08:42:56 51°17.118 2°52.602 8 282 8.5 101270 91
2002-11-26 08:43:00 51°17.132 2°52.591 7.6 283 8.6 101260 91
2002-11-26 08:43:06 51°17.152 2°52.574 8.9 277 8.6 101260 91
2002-11-26 08:43:11 51°17.169 2°52.56 9.1 283 8.6 101270 91
2002-11-26 08:43:16 51°17.187 2°52.545 9.2 284 8.6 101270 91
2002-11-26 08:43:20 51°17.2 2°52.534 8.9 284 8.7 101270 91
2002-11-26 08:43:26 51°17.221 2°52.516 9.1 282 8.7 101270 91
2002-11-26 08:43:31 51°17.238 2°52.502 9.2 283 8.7 101270 91
2002-11-26 08:43:36 51°17.256 2°52.488 9.6 282 8.7 101270 91
2002-11-26 08:43:40 51°17.269 2°52.476 9.5 281 8.7 101260 91
2002-11-26 08:43:46 51°17.29 2°52.458 8.9 285 8.7 101260 91
2002-11-26 08:43:51 51°17.307 2°52.443 8.3 280 8.8 101260 91
2002-11-26 08:43:56 51°17.325 2°52.429 8.7 279 8.8 101260 91
2002-11-26 08:44:00 51°17.339 2°52.418 9 281 8.8 101260 91
2002-11-26 08:44:06 51°17.36 2°52.401 9.1 287 8.8 101260 91
2002-11-26 08:44:11 51°17.377 2°52.386 8.4 287 8.8 101260 91
2002-11-26 08:44:16 51°17.395 2°52.372 9.6 280 8.8 101260 91
2002-11-26 08:44:20 51°17.408 2°52.36 8.7 281 8.8 101260 91
2002-11-26 08:44:26 51°17.429 2°52.342 10.5 280 8.8 101260 91
2002-11-26 08:44:31 51°17.445 2°52.324 10 280 8.9 101270 91
2002-11-26 08:44:36 51°17.461 2°52.305 10.1 275 8.9 101270 91
2002-11-26 08:44:40 51°17.473 2°52.29 10.1 269 8.9 101270 91
2002-11-26 08:44:46 51°17.491 2°52.266 10.6 274 8.9 101270 91
2002-11-26 08:44:51 51°17.506 2°52.245 10 276 8.9 101260 91
2002-11-26 08:44:56 51°17.521 2°52.225 10.2 278 8.9 101260 91
2002-11-26 08:45:00 51°17.532 2°52.208 10.4 277 8.9 101260 91
2002-11-26 08:45:06 51°17.55 2°52.183 10.6 277 8.9 101260 91
2002-11-26 08:45:11 51°17.565 2°52.161 10.1 280 8.9 101260 91
2002-11-26 08:45:16 51°17.58 2°52.141 10.2 275 8.9 101260 91
2002-11-26 08:45:20 51°17.591 2°52.124 10.4 276 9 101260 91
2002-11-26 08:45:26 51°17.609 2°52.099 10.5 272 9 101260 91
2002-11-26 08:45:31 51°17.623 2°52.078 10.8 270 9 101260 91
2002-11-26 08:45:36 51°17.637 2°52.056 12.1 270 9 101260 91
2002-11-26 08:45:40 51°17.647 2°52.037 11.9 268 9 101260 91
2002-11-26 08:45:46 51°17.662 2°52.008 12.1 271 9 101260 91
2002-11-26 08:45:51 51°17.673 2°51.982 11.7 271 9 101260 91
2002-11-26 08:45:56 51°17.684 2°51.956 11.7 272 9 101260 91
2002-11-26 08:46:01 51°17.695 2°51.93 11.9 269 9.1 101260 91
2002-11-26 08:46:06 51°17.705 2°51.903 12 268 9.1 101260 91
2002-11-26 08:46:11 51°17.716 2°51.877 12.5 271 9.1 101250 91
2002-11-26 08:46:16 51°17.726 2°51.85 11.4 267 9.1 101250 91
2002-11-26 08:46:21 51°17.737 2°51.824 12.3 265 9.1 101250 90
2002-11-26 08:46:26 51°17.747 2°51.797 11.9 269 9.1 101250 90
2002-11-26 08:46:31 51°17.758 2°51.77 12.3 268 9.1 101250 90
2002-11-26 08:46:36 51°17.768 2°51.744 11.9 267 9.1 101250 90
2002-11-26 08:46:40 51°17.777 2°51.723 11.8 267 9.2 101250 90
2002-11-26 08:46:46 51°17.789 2°51.691 11.5 265 9.2 101250 90
2002-11-26 08:46:51 51°17.8 2°51.664 12.2 268 9.1 101250 90
2002-11-26 08:46:56 51°17.811 2°51.638 11.6 269 9.1 101250 90
2002-11-26 08:47:00 51°17.819 2°51.617 11.1 270 9.2 101250 90
2002-11-26 08:47:06 51°17.832 2°51.585 11.4 266 9.2 101250 90
2002-11-26 08:47:11 51°17.843 2°51.559 12.4 269 9.2 101250 90
2002-11-26 08:47:16 51°17.854 2°51.532 10.9 264 9.2 101250 90
2002-11-26 08:47:20 51°17.862 2°51.511 11.4 267 9.2 101260 90
2002-11-26 08:47:26 51°17.876 2°51.479 12.1 265 9.2 101260 90
2002-11-26 08:47:31 51°17.886 2°51.453 12.4 263 9.2 101260 90
2002-11-26 08:47:36 51°17.897 2°51.426 12.2 268 9.2 101260 90
2002-11-26 08:47:40 51°17.906 2°51.405 13.1 268 9.2 101250 90
2002-11-26 08:47:46 51°17.919 2°51.374 11.6 269 9.2 101250 90
2002-11-26 08:47:51 51°17.93 2°51.347 11.3 270 9.3 101250 90
2002-11-26 08:47:56 51°17.941 2°51.321 10.5 264 9.3 101250 90
2002-11-26 08:48:00 51°17.949 2°51.299 12.2 268 9.3 101250 90
2002-11-26 08:48:06 51°17.963 2°51.267 11.2 265 9.3 101250 90
2002-11-26 08:48:11 51°17.973 2°51.24 12.2 262 9.3 101250 90
2002-11-26 08:48:16 51°17.984 2°51.213 12 267 9.3 101250 90
2002-11-26 08:48:20 51°17.993 2°51.193 11.4 262 9.3 101250 90
2002-11-26 08:48:26 51°18.006 2°51.163 11.7 266 9.3 101250 90
2002-11-26 08:48:31 51°18.017 2°51.136 11.3 265 9.3 101250 89
2002-11-26 08:48:36 51°18.028 2°51.11 11 259 9.3 101250 89
2002-11-26 08:48:40 51°18.036 2°51.088 11.9 259 9.3 101240 89
2002-11-26 08:48:46 51°18.05 2°51.056 12.4 260 9.3 101240 89
2002-11-26 08:48:51 51°18.061 2°51.031 12.4 261 9.3 101250 89
2002-11-26 08:48:56 51°18.072 2°51.006 12.4 260 9.3 101250 89
2002-11-26 08:49:00 51°18.08 2°50.985 12.7 262 9.3 101250 89
2002-11-26 08:49:06 51°18.094 2°50.954 12.7 265 9.3 101250 89
2002-11-26 08:49:11 51°18.105 2°50.927 12 264 9.3 101250 89
2002-11-26 08:49:16 51°18.116 2°50.9 11.8 264 9.3 101250 89
2002-11-26 08:49:20 51°18.125 2°50.878 12.5 265 9.3 101260 89
2002-11-26 08:49:26 51°18.138 2°50.846 12.5 263 9.3 101260 89
2002-11-26 08:49:31 51°18.149 2°50.82 11.6 264 9.3 101250 88
2002-11-26 08:49:36 51°18.159 2°50.793 12.7 262 9.3 101250 88
2002-11-26 08:49:41 51°18.17 2°50.767 12.2 264 9.3 101250 88
2002-11-26 08:49:46 51°18.181 2°50.741 11.6 262 9.3 101250 88
2002-11-26 08:49:51 51°18.192 2°50.715 11.9 264 9.3 101250 88
2002-11-26 08:49:56 51°18.203 2°50.688 11.4 260 9.3 101250 88
2002-11-26 08:50:00 51°18.212 2°50.667 12.4 265 9.3 101250 88
2002-11-26 08:50:06 51°18.225 2°50.635 11.7 263 9.3 101250 88
2002-11-26 08:50:11 51°18.237 2°50.609 11.8 266 9.3 101250 88
2002-11-26 08:50:16 51°18.248 2°50.582 12.3 262 9.3 101250 88
2002-11-26 08:50:20 51°18.256 2°50.56 11.6 264 9.4 101250 88
2002-11-26 08:50:26 51°18.27 2°50.528 12.9 266 9.4 101250 88
2002-11-26 08:50:31 51°18.281 2°50.502 12.7 264 9.4 101250 88
2002-11-26 08:50:36 51°18.292 2°50.476 12 265 9.4 101250 88
2002-11-26 08:50:40 51°18.301 2°50.455 11.7 265 9.4 101250 88
2002-11-26 08:50:46 51°18.314 2°50.424 11.9 261 9.4 101250 88
2002-11-26 08:50:51 51°18.325 2°50.398 11.9 262 9.4 101250 88
2002-11-26 08:50:56 51°18.336 2°50.371 12.4 261 9.4 101250 88
2002-11-26 08:51:00 51°18.345 2°50.35 12.1 261 9.4 101250 88
2002-11-26 08:51:06 51°18.359 2°50.318 12.7 259 9.4 101250 88
2002-11-26 08:51:11 51°18.37 2°50.292 12.2 261 9.5 101260 87
2002-11-26 08:51:16 51°18.381 2°50.266 11.9 261 9.5 101260 87
2002-11-26 08:51:20 51°18.39 2°50.245 12.3 260 9.5 101250 87
2002-11-26 08:51:26 51°18.403 2°50.214 12.7 264 9.5 101250 87
2002-11-26 08:51:31 51°18.414 2°50.187 12 262 9.5 101250 87
2002-11-26 08:51:36 51°18.425 2°50.161 11.9 262 9.5 101250 87
2002-11-26 08:51:40 51°18.434 2°50.14 11.3 263 9.5 101250 87
2002-11-26 08:51:46 51°18.447 2°50.11 12.3 262 9.5 101250 87
2002-11-26 08:51:51 51°18.459 2°50.084 11.3 263 9.5 101250 87
2002-11-26 08:51:56 51°18.47 2°50.058 11.2 264 9.5 101250 87
2002-11-26 08:52:01 51°18.481 2°50.031 11.6 267 9.5 101260 86
2002-11-26 08:52:06 51°18.492 2°50.005 11.5 264 9.5 101260 86
2002-11-26 08:52:11 51°18.504 2°49.979 10.9 263 9.5 101250 86
2002-11-26 08:52:16 51°18.515 2°49.953 11.1 266 9.5 101250 86
2002-11-26 08:52:20 51°18.524 2°49.932 11.9 264 9.5 101250 86
2002-11-26 08:52:26 51°18.537 2°49.9 11.1 267 9.5 101250 86
2002-11-26 08:52:31 51°18.548 2°49.874 11.8 265 9.5 101260 86
2002-11-26 08:52:36 51°18.56 2°49.848 11.4 265 9.5 101260 86
2002-11-26 08:52:41 51°18.571 2°49.822 12 265 9.5 101250 86
2002-11-26 08:52:46 51°18.582 2°49.796 11.3 260 9.5 101250 86
2002-11-26 08:52:51 51°18.593 2°49.771 11.8 264 9.6 101240 86
2002-11-26 08:52:56 51°18.604 2°49.745 11.9 265 9.6 101240 86
2002-11-26 08:53:00 51°18.613 2°49.723 11.8 262 9.6 101250 86
2002-11-26 08:53:06 51°18.626 2°49.692 11.8 264 9.6 101250 86
2002-11-26 08:53:11 51°18.638 2°49.665 12.1 267 9.6 101240 86
2002-11-26 08:53:16 51°18.649 2°49.639 12.7 265 9.6 101240 86
2002-11-26 08:53:20 51°18.658 2°49.619 11.5 266 9.6 101240 86
2002-11-26 08:53:26 51°18.671 2°49.587 11 265 9.6 101240 86
2002-11-26 08:53:31 51°18.682 2°49.561 11.7 264 9.6 101250 86
2002-11-26 08:53:36 51°18.693 2°49.534 11.1 265 9.6 101250 86
2002-11-26 08:53:41 51°18.705 2°49.509 12 264 9.6 101250 85
2002-11-26 08:53:46 51°18.715 2°49.483 11.6 266 9.6 101250 85
2002-11-26 08:53:51 51°18.726 2°49.457 12.3 267 9.6 101250 85
2002-11-26 08:53:56 51°18.738 2°49.431 10.9 262 9.6 101250 85
2002-11-26 08:54:00 51°18.747 2°49.41 11.7 264 9.6 101240 85
2002-11-26 08:54:06 51°18.76 2°49.378 12.5 264 9.6 101240 85
2002-11-26 08:54:11 51°18.771 2°49.352 12.4 265 9.6 101250 85
2002-11-26 08:54:16 51°18.783 2°49.326 11.7 263 9.6 101250 85
2002-11-26 08:54:20 51°18.792 2°49.305 11.1 262 9.6 101260 85
2002-11-26 08:54:26 51°18.806 2°49.273 12.4 267 9.6 101260 85
2002-11-26 08:54:31 51°18.817 2°49.246 11.7 260 9.6 101260 85
2002-11-26 08:54:36 51°18.828 2°49.22 13.1 265 9.6 101260 85
2002-11-26 08:54:40 51°18.837 2°49.199 11.7 259 9.6 101250 85
2002-11-26 08:54:46 51°18.851 2°49.167 13.3 260 9.6 101250 85
2002-11-26 08:54:51 51°18.862 2°49.141 13.3 261 9.6 101250 85
2002-11-26 08:54:56 51°18.874 2°49.114 12.6 261 9.6 101250 85
2002-11-26 08:55:00 51°18.883 2°49.093 12.7 262 9.7 101250 85
2002-11-26 08:55:06 51°18.896 2°49.061 12 262 9.7 101250 85
2002-11-26 08:55:11 51°18.908 2°49.035 12.2 263 9.7 101250 84
2002-11-26 08:55:16 51°18.919 2°49.008 11.9 265 9.7 101250 84
2002-11-26 08:55:20 51°18.928 2°48.987 12.2 263 9.6 101240 84
2002-11-26 08:55:26 51°18.942 2°48.954 11.6 265 9.6 101240 84
2002-11-26 08:55:31 51°18.954 2°48.928 11.4 261 9.6 101240 84
2002-11-26 08:55:36 51°18.965 2°48.901 11.4 266 9.6 101240 84
2002-11-26 08:55:40 51°18.974 2°48.88 11.2 263 9.7 101240 84
2002-11-26 08:55:46 51°18.988 2°48.848 12.4 266 9.7 101240 84
2002-11-26 08:55:51 51°18.999 2°48.821 12.6 267 9.6 101250 84
2002-11-26 08:55:56 51°19.011 2°48.795 11.8 266 9.6 101250 84
2002-11-26 08:56:00 51°19.02 2°48.773 12.2 263 9.7 101250 84
2002-11-26 08:56:06 51°19.034 2°48.741 12.5 264 9.7 101250 84
2002-11-26 08:56:11 51°19.045 2°48.714 12.3 262 9.6 101250 84
2002-11-26 08:56:16 51°19.056 2°48.687 12.6 263 9.6 101250 84
2002-11-26 08:56:20 51°19.065 2°48.666 12.2 265 9.7 101250 84
2002-11-26 08:56:26 51°19.079 2°48.635 11.9 265 9.7 101250 84
2002-11-26 08:56:31 51°19.09 2°48.608 11.8 265 9.7 101240 84
2002-11-26 08:56:36 51°19.101 2°48.582 11.8 266 9.7 101240 84
2002-11-26 08:56:40 51°19.11 2°48.561 12.1 268 9.7 101250 84
2002-11-26 08:56:46 51°19.123 2°48.529 12.4 262 9.7 101250 84
2002-11-26 08:56:51 51°19.135 2°48.502 11.7 264 9.7 101250 83
2002-11-26 08:56:56 51°19.146 2°48.475 11 267 9.7 101250 83
2002-11-26 08:57:00 51°19.155 2°48.454 12.9 264 9.7 101250 83
2002-11-26 08:57:06 51°19.168 2°48.423 11.3 262 9.7 101250 83
2002-11-26 08:57:11 51°19.179 2°48.396 11.7 268 9.7 101250 83
2002-11-26 08:57:16 51°19.19 2°48.37 11.2 265 9.7 101250 83
2002-11-26 08:57:20 51°19.199 2°48.349 11.5 268 9.7 101230 83
2002-11-26 08:57:26 51°19.212 2°48.317 12.4 264 9.7 101230 83
2002-11-26 08:57:31 51°19.223 2°48.291 11.9 266 9.7 101250 83
2002-11-26 08:57:36 51°19.234 2°48.265 11.1 267 9.7 101250 83
2002-11-26 08:57:40 51°19.244 2°48.244 11.8 267 9.7 101250 83
2002-11-26 08:57:46 51°19.257 2°48.213 10.6 267 9.7 101250 83
2002-11-26 08:57:51 51°19.268 2°48.186 11.1 269 9.7 101250 83
2002-11-26 08:57:56 51°19.279 2°48.159 10.9 270 9.7 101250 83
2002-11-26 08:58:00 51°19.288 2°48.138 10.9 268 9.6 101250 82
2002-11-26 08:58:06 51°19.301 2°48.107 11.3 265 9.6 101250 82
2002-11-26 08:58:11 51°19.312 2°48.08 11.9 267 9.6 101250 82
2002-11-26 08:58:16 51°19.323 2°48.054 12.1 268 9.6 101250 82
2002-11-26 08:58:20 51°19.332 2°48.032 12 266 9.7 101250 82
2002-11-26 08:58:26 51°19.346 2°48.001 11.8 269 9.7 101250 82
2002-11-26 08:58:31 51°19.357 2°47.975 11.5 267 9.7 101250 83
2002-11-26 08:58:36 51°19.368 2°47.948 11.2 267 9.7 101250 83
2002-11-26 08:58:40 51°19.377 2°47.927 11.2 270 9.7 101250 82
2002-11-26 08:58:46 51°19.39 2°47.895 10.8 270 9.7 101250 82
2002-11-26 08:58:51 51°19.401 2°47.869 11.5 266 9.7 101240 82
2002-11-26 08:58:56 51°19.412 2°47.842 11.1 265 9.7 101240 82
2002-11-26 08:59:00 51°19.421 2°47.822 10.9 266 9.7 101250 82
2002-11-26 08:59:06 51°19.435 2°47.79 11 265 9.7 101250 82
2002-11-26 08:59:11 51°19.446 2°47.764 10.9 262 9.7 101250 82
2002-11-26 08:59:16 51°19.457 2°47.738 11.6 262 9.7 101250 82
2002-11-26 08:59:20 51°19.466 2°47.717 11.3 262 9.7 101250 82
2002-11-26 08:59:26 51°19.479 2°47.685 12 263 9.7 101250 82
2002-11-26 08:59:31 51°19.49 2°47.659 11.9 264 9.7 101260 82
2002-11-26 08:59:36 51°19.502 2°47.633 12 267 9.7 101260 82
2002-11-26 08:59:40 51°19.511 2°47.612 11.1 266 9.7 101250 82
2002-11-26 08:59:46 51°19.524 2°47.581 11.9 267 9.7 101250 82
2002-11-26 08:59:51 51°19.536 2°47.554 11.2 269 9.7 101260 82
2002-11-26 08:59:56 51°19.547 2°47.528 11.3 268 9.7 101260 82
2002-11-26 09:00:00 51°19.556 2°47.507 10.9 269 9.7 101250 82
2002-11-26 09:00:06 51°19.569 2°47.476 11.5 266 9.7 101250 82
2002-11-26 09:00:11 51°19.581 2°47.45 11.9 267 9.7 101250 82
2002-11-26 09:00:16 51°19.592 2°47.424 12 268 9.7 101250 82
2002-11-26 09:00:20 51°19.601 2°47.403 10.4 263 9.7 101260 82
2002-11-26 09:00:26 51°19.615 2°47.372 12.4 265 9.7 101260 82
2002-11-26 09:00:31 51°19.626 2°47.346 12 262 9.7 101250 82
2002-11-26 09:00:36 51°19.637 2°47.32 12.3 264 9.7 101250 82
2002-11-26 09:00:40 51°19.646 2°47.299 11.3 263 9.7 101260 82
2002-11-26 09:00:46 51°19.66 2°47.268 11.7 261 9.7 101260 82
2002-11-26 09:00:51 51°19.671 2°47.241 10.9 261 9.8 101250 82
2002-11-26 09:00:56 51°19.683 2°47.215 10.8 261 9.8 101250 82
2002-11-26 09:01:01 51°19.693 2°47.189 11.4 261 9.7 101260 82
2002-11-26 09:01:06 51°19.704 2°47.163 10.8 257 9.7 101260 82
2002-11-26 09:01:11 51°19.714 2°47.135 11.8 260 9.7 101250 81
2002-11-26 09:01:16 51°19.722 2°47.106 12.1 259 9.7 101250 81
2002-11-26 09:01:20 51°19.729 2°47.084 11.8 260 9.7 101260 81
2002-11-26 09:01:26 51°19.739 2°47.049 12.7 260 9.7 101260 81
2002-11-26 09:01:31 51°19.746 2°47.019 13.2 258 9.7 101260 81
2002-11-26 09:01:36 51°19.753 2°46.989 11.6 262 9.7 101260 81
2002-11-26 09:01:40 51°19.759 2°46.966 11.8 260 9.7 101260 81
2002-11-26 09:01:46 51°19.767 2°46.93 12.2 263 9.7 101260 81
2002-11-26 09:01:51 51°19.774 2°46.901 11.4 259 9.7 101250 81
2002-11-26 09:01:56 51°19.781 2°46.871 12 259 9.7 101250 81
2002-11-26 09:02:00 51°19.787 2°46.847 12.6 260 9.8 101240 81
2002-11-26 09:02:06 51°19.795 2°46.811 12.4 261 9.8 101240 81
2002-11-26 09:02:11 51°19.803 2°46.782 13 262 9.8 101250 81
2002-11-26 09:02:16 51°19.81 2°46.752 12.5 264 9.8 101250 81
2002-11-26 09:02:20 51°19.815 2°46.728 12 264 9.8 101260 81
2002-11-26 09:02:26 51°19.824 2°46.693 12.3 265 9.8 101260 81
2002-11-26 09:02:31 51°19.831 2°46.663 10.8 260 9.8 101250 81
2002-11-26 09:02:36 51°19.839 2°46.634 11.7 263 9.8 101250 81
2002-11-26 09:02:41 51°19.846 2°46.604 12.3 262 9.8 101250 81
2002-11-26 09:02:46 51°19.853 2°46.574 12.3 264 9.8 101250 81
2002-11-26 09:02:51 51°19.86 2°46.544 12.2 262 9.8 101250 81
2002-11-26 09:02:56 51°19.867 2°46.515 13 262 9.8 101250 81
2002-11-26 09:03:01 51°19.873 2°46.485 12.8 263 9.8 101250 81
2002-11-26 09:03:06 51°19.88 2°46.455 11.7 262 9.8 101250 81
2002-11-26 09:03:11 51°19.886 2°46.424 12.6 262 9.8 101240 81
2002-11-26 09:03:16 51°19.892 2°46.394 11.3 262 9.8 101240 81
2002-11-26 09:03:20 51°19.897 2°46.37 12.3 264 9.8 101250 81
2002-11-26 09:03:26 51°19.905 2°46.333 12.5 264 9.8 101250 81
2002-11-26 09:03:31 51°19.91 2°46.302 12.6 262 9.8 101260 81
2002-11-26 09:03:36 51°19.917 2°46.272 12.1 263 9.8 101260 81
2002-11-26 09:03:40 51°19.922 2°46.248 11.3 265 9.8 101260 81
2002-11-26 09:03:46 51°19.93 2°46.212 11.4 264 9.8 101260 81
2002-11-26 09:03:51 51°19.935 2°46.181 11.5 263 9.8 101250 81
2002-11-26 09:03:56 51°19.942 2°46.151 11.3 260 9.8 101250 81
2002-11-26 09:04:01 51°19.948 2°46.121 11.2 261 9.8 101260 81
2002-11-26 09:04:06 51°19.954 2°46.091 11.5 264 9.8 101260 81
2002-11-26 09:04:11 51°19.96 2°46.06 11.9 265 9.8 101260 82
2002-11-26 09:04:16 51°19.967 2°46.03 12.8 263 9.8 101260 82
2002-11-26 09:04:20 51°19.971 2°46.005 11.4 259 9.8 101260 82
2002-11-26 09:04:26 51°19.98 2°45.968 11.6 258 9.8 101260 82
2002-11-26 09:04:31 51°19.986 2°45.938 11.7 258 9.8 101260 82
2002-11-26 09:04:36 51°19.992 2°45.907 12.5 263 9.8 101260 82
2002-11-26 09:04:40 51°19.997 2°45.882 13 264 9.8 101260 82
2002-11-26 09:04:46 51°20.005 2°45.846 12.7 264 9.8 101260 82
2002-11-26 09:04:51 51°20.011 2°45.815 12.3 263 9.8 101250 82
2002-11-26 09:04:56 51°20.018 2°45.784 12.2 267 9.8 101250 82
2002-11-26 09:05:00 51°20.023 2°45.759 12.2 262 9.9 101260 82
2002-11-26 09:05:06 51°20.03 2°45.723 13.6 263 9.9 101260 82
2002-11-26 09:05:11 51°20.036 2°45.692 13.7 261 9.9 101250 82
2002-11-26 09:05:16 51°20.043 2°45.662 12.7 262 9.9 101250 82
2002-11-26 09:05:20 51°20.048 2°45.637 12.5 262 9.9 101250 83
2002-11-26 09:05:26 51°20.055 2°45.6 12.2 262 9.9 101250 83
2002-11-26 09:05:31 51°20.061 2°45.57 12.8 263 9.9 101260 83
2002-11-26 09:05:36 51°20.068 2°45.539 11.8 263 9.9 101260 83
2002-11-26 09:05:40 51°20.073 2°45.514 13.3 265 9.9 101250 83
2002-11-26 09:05:46 51°20.081 2°45.477 12.2 268 9.9 101250 83
2002-11-26 09:05:51 51°20.087 2°45.446 11.4 264 9.9 101250 83
2002-11-26 09:05:56 51°20.094 2°45.416 12.1 265 9.9 101250 83
2002-11-26 09:06:00 51°20.098 2°45.391 13 264 9.9 101250 83
2002-11-26 09:06:06 51°20.106 2°45.354 12.6 263 9.9 101250 83
2002-11-26 09:06:11 51°20.112 2°45.324 12.6 266 9.9 101260 83
2002-11-26 09:06:16 51°20.118 2°45.294 12.6 267 9.9 101260 83
2002-11-26 09:06:20 51°20.123 2°45.269 12.1 267 9.9 101260 83
2002-11-26 09:06:26 51°20.13 2°45.233 12.7 266 9.9 101260 83
2002-11-26 09:06:31 51°20.137 2°45.202 11.9 267 9.9 101250 83
2002-11-26 09:06:36 51°20.143 2°45.172 11.8 267 9.9 101250 83
2002-11-26 09:06:41 51°20.149 2°45.141 11.9 270 9.9 101250 83
2002-11-26 09:06:46 51°20.155 2°45.111 12.1 266 9.9 101250 83
2002-11-26 09:06:51 51°20.161 2°45.08 12.1 265 9.9 101250 83
2002-11-26 09:06:56 51°20.167 2°45.05 13.1 269 9.9 101250 83
2002-11-26 09:07:00 51°20.172 2°45.025 14.2 266 9.9 101250 83
2002-11-26 09:07:06 51°20.179 2°44.989 13.3 265 9.9 101250 83
2002-11-26 09:07:11 51°20.184 2°44.958 13.3 265 9.9 101260 83
2002-11-26 09:07:16 51°20.19 2°44.928 12.8 266 9.9 101260 83
2002-11-26 09:07:20 51°20.195 2°44.904 12.2 268 9.9 101250 83
2002-11-26 09:07:26 51°20.202 2°44.867 12.3 268 9.9 101250 83
2002-11-26 09:07:31 51°20.209 2°44.837 12.8 266 9.8 101250 83
2002-11-26 09:07:36 51°20.215 2°44.807 12.9 265 9.8 101250 83
2002-11-26 09:07:40 51°20.22 2°44.782 12.3 266 9.8 101240 83
2002-11-26 09:07:46 51°20.227 2°44.747 12.4 268 9.8 101240 83
2002-11-26 09:07:51 51°20.233 2°44.716 12.2 265 9.8 101250 83
2002-11-26 09:07:56 51°20.24 2°44.686 12.5 267 9.8 101250 83
2002-11-26 09:08:01 51°20.246 2°44.656 12.2 262 9.8 101250 84
2002-11-26 09:08:06 51°20.252 2°44.626 13.5 266 9.8 101250 84
2002-11-26 09:08:11 51°20.258 2°44.596 12.8 263 9.8 101260 84
2002-11-26 09:08:16 51°20.264 2°44.566 13.2 264 9.8 101260 84
2002-11-26 09:08:20 51°20.27 2°44.542 13 261 9.8 101270 84
2002-11-26 09:08:26 51°20.277 2°44.506 14 258 9.8 101270 84
2002-11-26 09:08:31 51°20.283 2°44.476 14 261 9.8 101250 84
2002-11-26 09:08:36 51°20.289 2°44.446 13.8 260 9.8 101250 84
2002-11-26 09:08:40 51°20.294 2°44.422 13.5 260 9.8 101260 84
2002-11-26 09:08:46 51°20.301 2°44.385 12.9 260 9.8 101260 84
2002-11-26 09:08:51 51°20.306 2°44.355 12.8 261 9.8 101250 84
2002-11-26 09:08:56 51°20.311 2°44.324 12.5 263 9.8 101250 84
2002-11-26 09:09:00 51°20.315 2°44.3 13.8 265 9.8 101260 83
2002-11-26 09:09:06 51°20.32 2°44.263 12.8 255 9.8 101260 83
2002-11-26 09:09:11 51°20.325 2°44.231 13.8 262 9.8 101260 83
2002-11-26 09:09:16 51°20.33 2°44.2 13.9 262 9.8 101260 83
2002-11-26 09:09:20 51°20.333 2°44.175 14.1 261 9.7 101260 83
2002-11-26 09:09:26 51°20.338 2°44.139 13.7 261 9.7 101260 83
2002-11-26 09:09:31 51°20.342 2°44.108 14 258 9.7 101260 84
2002-11-26 09:09:36 51°20.347 2°44.077 13.8 261 9.7 101260 84
2002-11-26 09:09:41 51°20.351 2°44.046 13.6 258 9.8 101270 84
2002-11-26 09:09:46 51°20.356 2°44.015 14.1 264 9.8 101270 84
2002-11-26 09:09:51 51°20.36 2°43.984 14.3 264 9.8 101260 84
2002-11-26 09:09:56 51°20.364 2°43.953 14.1 263 9.8 101260 84
2002-11-26 09:10:00 51°20.368 2°43.928 13.8 266 9.8 101250 84
2002-11-26 09:10:06 51°20.373 2°43.891 14.2 265 9.8 101250 84
2002-11-26 09:10:11 51°20.377 2°43.86 14.5 261 9.7 101260 84
2002-11-26 09:10:16 51°20.382 2°43.829 14.6 264 9.7 101260 84
2002-11-26 09:10:21 51°20.386 2°43.798 14.5 262 9.7 101260 84
2002-11-26 09:10:26 51°20.391 2°43.767 13.7 263 9.7 101260 84
2002-11-26 09:10:31 51°20.394 2°43.736 13.7 259 9.7 101270 84
2002-11-26 09:10:36 51°20.399 2°43.705 14.3 264 9.7 101270 84
2002-11-26 09:10:41 51°20.403 2°43.674 13.9 265 9.7 101250 84
2002-11-26 09:10:46 51°20.408 2°43.643 13.1 260 9.7 101250 84
2002-11-26 09:10:51 51°20.412 2°43.613 13.9 257 9.7 101250 84
2002-11-26 09:10:56 51°20.416 2°43.582 13.3 259 9.7 101250 84
2002-11-26 09:11:00 51°20.42 2°43.557 14.7 258 9.7 101250 84
2002-11-26 09:11:06 51°20.425 2°43.52 14.5 261 9.7 101250 84
2002-11-26 09:11:11 51°20.429 2°43.489 14.5 260 9.7 101260 84
2002-11-26 09:11:16 51°20.434 2°43.458 14.6 258 9.7 101260 84
2002-11-26 09:11:20 51°20.437 2°43.433 14 259 9.7 101260 84
2002-11-26 09:11:26 51°20.443 2°43.395 14 258 9.7 101260 84
2002-11-26 09:11:31 51°20.447 2°43.364 14.2 260 9.7 101260 84
2002-11-26 09:11:36 51°20.452 2°43.333 15.2 266 9.7 101260 84
2002-11-26 09:11:41 51°20.456 2°43.302 13.4 258 9.7 101260 84
2002-11-26 09:11:46 51°20.46 2°43.271 13.9 262 9.7 101260 84
2002-11-26 09:11:51 51°20.464 2°43.24 13.3 259 9.7 101260 84
2002-11-26 09:11:56 51°20.469 2°43.209 14.3 261 9.7 101260 84
2002-11-26 09:12:00 51°20.472 2°43.184 15.1 261 9.7 101260 84
2002-11-26 09:12:06 51°20.478 2°43.147 14.7 263 9.7 101260 84
2002-11-26 09:12:11 51°20.483 2°43.115 14.3 263 9.7 101260 84
2002-11-26 09:12:16 51°20.487 2°43.084 13.1 264 9.7 101260 84
2002-11-26 09:12:20 51°20.491 2°43.059 13.4 264 9.8 101260 84
2002-11-26 09:12:26 51°20.496 2°43.022 14.2 262 9.8 101260 84
2002-11-26 09:12:31 51°20.5 2°42.991 13.4 266 9.7 101250 84
2002-11-26 09:12:36 51°20.505 2°42.96 14 263 9.7 101250 84
2002-11-26 09:12:41 51°20.509 2°42.929 13.1 263 9.7 101260 84
2002-11-26 09:12:46 51°20.513 2°42.898 13.3 262 9.7 101260 84
2002-11-26 09:12:51 51°20.518 2°42.867 13.9 267 9.7 101250 84
2002-11-26 09:12:56 51°20.522 2°42.835 13.8 260 9.7 101250 84
2002-11-26 09:13:00 51°20.526 2°42.81 15 262 9.6 101260 84
2002-11-26 09:13:06 51°20.531 2°42.773 14.3 262 9.6 101260 84
2002-11-26 09:13:11 51°20.536 2°42.742 13.4 262 9.6 101250 84
2002-11-26 09:13:16 51°20.541 2°42.71 14.5 261 9.6 101250 84
2002-11-26 09:13:20 51°20.544 2°42.685 13.8 261 9.6 101260 84
2002-11-26 09:13:26 51°20.549 2°42.648 13.2 264 9.6 101260 84
2002-11-26 09:13:31 51°20.554 2°42.616 13.7 265 9.6 101250 84
2002-11-26 09:13:36 51°20.558 2°42.585 14.3 260 9.6 101250 84
2002-11-26 09:13:40 51°20.562 2°42.56 14.6 263 9.7 101260 84
2002-11-26 09:13:46 51°20.568 2°42.523 13.7 259 9.7 101260 84
2002-11-26 09:13:51 51°20.572 2°42.492 14 259 9.6 101260 84
2002-11-26 09:13:56 51°20.577 2°42.46 13.5 262 9.6 101260 84
2002-11-26 09:14:00 51°20.581 2°42.435 13 260 9.6 101250 84
2002-11-26 09:14:06 51°20.586 2°42.398 13.3 257 9.6 101250 84
2002-11-26 09:14:11 51°20.591 2°42.366 15.1 262 9.6 101250 84
2002-11-26 09:14:16 51°20.595 2°42.335 14.1 264 9.6 101250 84
2002-11-26 09:14:20 51°20.599 2°42.31 14 262 9.6 101250 84
2002-11-26 09:14:26 51°20.604 2°42.272 13.4 264 9.6 101250 84
2002-11-26 09:14:31 51°20.609 2°42.24 13.7 266 9.6 101260 84
2002-11-26 09:14:36 51°20.613 2°42.209 13.7 263 9.6 101260 84
2002-11-26 09:14:40 51°20.618 2°42.184 13.5 263 9.6 101260 84
2002-11-26 09:14:46 51°20.623 2°42.146 15 258 9.6 101260 84
2002-11-26 09:14:51 51°20.628 2°42.114 15.1 262 9.6 101260 84
2002-11-26 09:14:56 51°20.632 2°42.082 14 259 9.6 101260 84
2002-11-26 09:15:00 51°20.636 2°42.057 14.2 261 9.6 101260 84
2002-11-26 09:15:06 51°20.641 2°42.02 13.2 262 9.6 101260 84
2002-11-26 09:15:11 51°20.646 2°41.988 13.6 263 9.6 101260 84
2002-11-26 09:15:16 51°20.651 2°41.956 13.6 260 9.6 101260 84
2002-11-26 09:15:20 51°20.654 2°41.931 14.1 265 9.6 101260 84
2002-11-26 09:15:26 51°20.66 2°41.893 13.8 264 9.6 101260 84
2002-11-26 09:15:31 51°20.664 2°41.862 13.4 264 9.6 101260 84
2002-11-26 09:15:36 51°20.669 2°41.831 14.3 265 9.6 101260 84
2002-11-26 09:15:41 51°20.674 2°41.799 12.6 264 9.6 101260 84
2002-11-26 09:15:46 51°20.678 2°41.767 12.9 269 9.6 101260 84
2002-11-26 09:15:51 51°20.683 2°41.735 14.4 261 9.6 101260 84
2002-11-26 09:15:56 51°20.688 2°41.704 14.8 265 9.6 101260 84
2002-11-26 09:16:00 51°20.692 2°41.679 14 263 9.6 101260 84
2002-11-26 09:16:06 51°20.698 2°41.641 14.2 266 9.6 101260 84
2002-11-26 09:16:11 51°20.702 2°41.61 14 265 9.6 101260 84
2002-11-26 09:16:16 51°20.707 2°41.579 13.8 261 9.6 101260 84
2002-11-26 09:16:21 51°20.711 2°41.547 13.9 263 9.6 101260 84
2002-11-26 09:16:26 51°20.716 2°41.516 13.9 262 9.6 101260 84
2002-11-26 09:16:31 51°20.72 2°41.485 14.2 262 9.6 101260 84
2002-11-26 09:16:36 51°20.724 2°41.454 13.1 260 9.6 101260 84
2002-11-26 09:16:41 51°20.729 2°41.422 13.5 263 9.6 101260 84
2002-11-26 09:16:46 51°20.733 2°41.39 14.3 259 9.6 101260 84
2002-11-26 09:16:51 51°20.738 2°41.359 14.1 262 9.6 101270 84
2002-11-26 09:16:56 51°20.742 2°41.328 13.5 264 9.6 101270 84
2002-11-26 09:17:00 51°20.747 2°41.302 13.7 264 9.6 101260 84
2002-11-26 09:17:06 51°20.752 2°41.265 15.3 262 9.6 101260 84
2002-11-26 09:17:11 51°20.757 2°41.233 14 263 9.6 101260 84
2002-11-26 09:17:16 51°20.762 2°41.202 14.4 263 9.6 101260 84
2002-11-26 09:17:21 51°20.766 2°41.172 14.2 265 9.6 101260 84
2002-11-26 09:17:26 51°20.771 2°41.141 14.7 267 9.6 101260 84
2002-11-26 09:17:31 51°20.775 2°41.11 13.5 266 9.6 101260 84
2002-11-26 09:17:36 51°20.78 2°41.079 13.5 266 9.6 101260 84
2002-11-26 09:17:41 51°20.784 2°41.047 13.4 261 9.6 101260 84
2002-11-26 09:17:46 51°20.789 2°41.015 13.6 264 9.6 101260 84
2002-11-26 09:17:51 51°20.793 2°40.984 13.4 261 9.6 101260 84
2002-11-26 09:17:56 51°20.798 2°40.953 14.3 264 9.6 101260 84
2002-11-26 09:18:00 51°20.802 2°40.928 14.3 267 9.6 101260 84
2002-11-26 09:18:06 51°20.807 2°40.891 13.7 262 9.6 101260 84
2002-11-26 09:18:11 51°20.812 2°40.86 12.8 261 9.6 101270 84
2002-11-26 09:18:16 51°20.817 2°40.829 14.2 259 9.6 101270 84
2002-11-26 09:18:21 51°20.822 2°40.798 14.1 263 9.6 101250 84
2002-11-26 09:18:26 51°20.826 2°40.767 13.3 262 9.6 101250 84
2002-11-26 09:18:31 51°20.831 2°40.736 13.7 265 9.6 101260 84
2002-11-26 09:18:36 51°20.835 2°40.704 14 263 9.6 101260 84
2002-11-26 09:18:41 51°20.84 2°40.673 13.2 262 9.6 101270 84
2002-11-26 09:18:46 51°20.844 2°40.641 12.8 263 9.6 101270 84
2002-11-26 09:18:51 51°20.849 2°40.61 13.6 265 9.6 101260 84
2002-11-26 09:18:56 51°20.854 2°40.579 13.3 265 9.6 101260 84
2002-11-26 09:19:00 51°20.857 2°40.554 13.4 265 9.6 101270 84
2002-11-26 09:19:06 51°20.864 2°40.517 12.3 263 9.6 101270 84
2002-11-26 09:19:11 51°20.868 2°40.485 13.2 260 9.6 101260 84
2002-11-26 09:19:16 51°20.873 2°40.454 13 262 9.6 101260 84
2002-11-26 09:19:21 51°20.878 2°40.422 13.3 263 9.6 101270 84
2002-11-26 09:19:26 51°20.883 2°40.391 13 263 9.6 101270 84
2002-11-26 09:19:31 51°20.887 2°40.36 12.8 261 9.6 101270 84
2002-11-26 09:19:36 51°20.892 2°40.329 13.2 260 9.6 101270 84
2002-11-26 09:19:41 51°20.896 2°40.298 13.4 259 9.7 101270 84
2002-11-26 09:19:46 51°20.901 2°40.266 13.3 261 9.7 101270 84
2002-11-26 09:19:51 51°20.906 2°40.235 13.3 259 9.7 101270 84
2002-11-26 09:19:56 51°20.911 2°40.204 13.1 259 9.7 101270 84
2002-11-26 09:20:01 51°20.916 2°40.173 13.5 261 9.7 101270 84
2002-11-26 09:20:06 51°20.92 2°40.142 12.9 258 9.7 101270 84
2002-11-26 09:20:11 51°20.925 2°40.111 11.9 261 9.7 101270 85
2002-11-26 09:20:16 51°20.93 2°40.08 13 258 9.7 101270 85
2002-11-26 09:20:20 51°20.934 2°40.055 13.4 263 9.7 101270 84
2002-11-26 09:20:26 51°20.94 2°40.018 13 261 9.7 101270 84
2002-11-26 09:20:31 51°20.945 2°39.987 13.9 264 9.6 101270 84
2002-11-26 09:20:36 51°20.949 2°39.955 12.5 261 9.6 101270 84
2002-11-26 09:20:40 51°20.954 2°39.931 12.4 264 9.6 101270 84
2002-11-26 09:20:46 51°20.959 2°39.894 12.2 264 9.6 101270 84
2002-11-26 09:20:51 51°20.966 2°39.863 12.1 263 9.6 101260 84
2002-11-26 09:20:56 51°20.97 2°39.832 12.1 267 9.6 101260 84
2002-11-26 09:21:00 51°20.975 2°39.808 12.8 267 9.6 101280 84
2002-11-26 09:21:06 51°20.982 2°39.771 13.3 264 9.6 101280 84
2002-11-26 09:21:11 51°20.988 2°39.742 12.4 265 9.6 101270 84
2002-11-26 09:21:16 51°20.994 2°39.711 12.4 262 9.6 101270 84
2002-11-26 09:21:20 51°20.999 2°39.687 12.8 264 9.6 101280 84
2002-11-26 09:21:26 51°21.006 2°39.65 12.8 265 9.6 101280 84
2002-11-26 09:21:31 51°21.012 2°39.619 13.1 264 9.6 101270 84
2002-11-26 09:21:36 51°21.018 2°39.589 12.6 265 9.6 101270 84
2002-11-26 09:21:40 51°21.023 2°39.565 12.7 267 9.6 101270 84
2002-11-26 09:21:46 51°21.03 2°39.528 12 268 9.6 101270 84
2002-11-26 09:21:51 51°21.037 2°39.498 12 269 9.6 101270 84
2002-11-26 09:21:56 51°21.044 2°39.468 11.3 271 9.6 101270 84
2002-11-26 09:22:00 51°21.05 2°39.444 11.3 271 9.6 101270 84
2002-11-26 09:22:06 51°21.058 2°39.408 12.1 269 9.6 101270 84
2002-11-26 09:22:11 51°21.065 2°39.379 12 270 9.6 101270 83
2002-11-26 09:22:16 51°21.073 2°39.349 11.9 275 9.6 101270 83
2002-11-26 09:22:20 51°21.079 2°39.326 11.8 274 9.6 101270 84
2002-11-26 09:22:26 51°21.088 2°39.29 11.6 272 9.6 101270 84
2002-11-26 09:22:31 51°21.096 2°39.261 11 273 9.6 101280 84
2002-11-26 09:22:36 51°21.103 2°39.231 11.1 276 9.6 101280 84
2002-11-26 09:22:40 51°21.11 2°39.207 11.3 275 9.6 101270 84
2002-11-26 09:22:46 51°21.12 2°39.172 11.4 270 9.6 101270 84
2002-11-26 09:22:51 51°21.129 2°39.144 11.4 273 9.6 101280 84
2002-11-26 09:22:56 51°21.139 2°39.116 11.7 273 9.6 101280 84
2002-11-26 09:23:00 51°21.147 2°39.094 10.6 270 9.6 101280 84
2002-11-26 09:23:06 51°21.16 2°39.062 10.5 269 9.6 101280 84
2002-11-26 09:23:11 51°21.172 2°39.036 11 273 9.6 101280 84
2002-11-26 09:23:16 51°21.183 2°39.011 9.7 276 9.6 101280 84
2002-11-26 09:23:20 51°21.193 2°38.992 11 274 9.6 101280 84
2002-11-26 09:23:26 51°21.209 2°38.963 9.8 277 9.6 101280 84
2002-11-26 09:23:31 51°21.223 2°38.94 9.8 280 9.6 101280 84
2002-11-26 09:23:36 51°21.237 2°38.918 9.7 279 9.6 101280 84
2002-11-26 09:23:40 51°21.249 2°38.9 10 278 9.6 101280 83
2002-11-26 09:23:46 51°21.266 2°38.874 8.3 284 9.6 101280 83
2002-11-26 09:23:51 51°21.282 2°38.855 7.9 281 9.6 101290 83
2002-11-26 09:23:56 51°21.297 2°38.835 8.1 285 9.6 101290 83
2002-11-26 09:24:00 51°21.31 2°38.82 7.4 284 9.6 101290 83
2002-11-26 09:24:06 51°21.329 2°38.799 7.8 288 9.6 101290 83
2002-11-26 09:24:11 51°21.346 2°38.781 7 288 9.6 101290 83
2002-11-26 09:24:16 51°21.363 2°38.765 6.7 284 9.6 101290 83
2002-11-26 09:24:21 51°21.38 2°38.751 7.1 285 9.6 101280 83
2002-11-26 09:24:26 51°21.398 2°38.738 7.5 281 9.6 101280 83
2002-11-26 09:24:31 51°21.416 2°38.724 7.1 281 9.6 101290 83
2002-11-26 09:24:36 51°21.434 2°38.712 7.3 281 9.6 101290 83
2002-11-26 09:24:40 51°21.448 2°38.702 7.4 289 9.6 101300 83
2002-11-26 09:24:46 51°21.47 2°38.687 6.8 286 9.6 101300 83
2002-11-26 09:24:51 51°21.488 2°38.675 6.4 285 9.7 101300 83
2002-11-26 09:24:56 51°21.506 2°38.663 6.8 283 9.7 101300 83
2002-11-26 09:25:00 51°21.52 2°38.652 6.7 281 9.6 101300 83
2002-11-26 09:25:06 51°21.542 2°38.638 7.3 287 9.6 101300 83
2002-11-26 09:25:11 51°21.56 2°38.625 6.4 287 9.7 101300 83
2002-11-26 09:25:16 51°21.578 2°38.613 6.5 291 9.7 101300 83
2002-11-26 09:25:20 51°21.593 2°38.605 6.1 281 9.7 101290 83
2002-11-26 09:25:26 51°21.615 2°38.593 6.1 288 9.7 101290 83
2002-11-26 09:25:31 51°21.633 2°38.584 6.3 286 9.7 101300 83
2002-11-26 09:25:36 51°21.652 2°38.575 5.7 285 9.7 101300 83
2002-11-26 09:25:40 51°21.667 2°38.568 5.2 288 9.7 101300 83
2002-11-26 09:25:46 51°21.69 2°38.558 5.2 285 9.7 101300 83
2002-11-26 09:25:51 51°21.708 2°38.549 5.4 278 9.7 101290 83
2002-11-26 09:25:56 51°21.727 2°38.541 6 281 9.7 101290 83
2002-11-26 09:26:01 51°21.746 2°38.532 5.7 286 9.7 101290 83
2002-11-26 09:26:06 51°21.765 2°38.523 5.2 293 9.7 101290 83
2002-11-26 09:26:11 51°21.783 2°38.514 5.2 291 9.7 101300 83
2002-11-26 09:26:16 51°21.802 2°38.505 5.8 286 9.7 101300 83
2002-11-26 09:26:20 51°21.817 2°38.499 5.4 283 9.7 101300 83
2002-11-26 09:26:26 51°21.84 2°38.487 5.2 286 9.7 101300 83
2002-11-26 09:26:31 51°21.858 2°38.478 6.4 286 9.7 101300 83
2002-11-26 09:26:36 51°21.877 2°38.469 6.1 289 9.7 101300 83
2002-11-26 09:26:40 51°21.892 2°38.462 6.3 291 9.7 101300 83
2002-11-26 09:26:46 51°21.915 2°38.451 7 286 9.7 101300 83
2002-11-26 09:26:51 51°21.933 2°38.441 6.8 290 9.7 101300 83
2002-11-26 09:26:56 51°21.952 2°38.432 6.1 285 9.7 101300 83
2002-11-26 09:27:01 51°21.97 2°38.423 7 283 9.7 101300 83
2002-11-26 09:27:06 51°21.989 2°38.413 6.5 289 9.7 101300 83
2002-11-26 09:27:11 51°22.008 2°38.404 7 293 9.8 101300 83
2002-11-26 09:27:16 51°22.026 2°38.395 7 293 9.8 101300 83
2002-11-26 09:27:20 51°22.041 2°38.387 7 293 9.8 101300 83
2002-11-26 09:27:26 51°22.063 2°38.375 6.6 290 9.8 101300 83
2002-11-26 09:27:31 51°22.081 2°38.366 6.6 297 9.8 101290 83
2002-11-26 09:27:36 51°22.1 2°38.356 6.3 288 9.8 101290 83
2002-11-26 09:27:41 51°22.118 2°38.347 5.9 297 9.8 101300 83
2002-11-26 09:27:46 51°22.137 2°38.337 5.7 288 9.8 101300 83
2002-11-26 09:27:51 51°22.155 2°38.328 5.6 294 9.8 101300 83
2002-11-26 09:27:56 51°22.173 2°38.317 5 291 9.8 101300 83
2002-11-26 09:28:00 51°22.188 2°38.31 5.3 293 9.8 101300 83
2002-11-26 09:28:06 51°22.21 2°38.298 5.2 293 9.8 101300 83
2002-11-26 09:28:11 51°22.229 2°38.288 4.9 293 9.8 101300 83
2002-11-26 09:28:16 51°22.247 2°38.278 5 292 9.8 101300 83
2002-11-26 09:28:20 51°22.262 2°38.27 5.8 293 9.8 101300 83
2002-11-26 09:28:26 51°22.284 2°38.258 5.8 300 9.8 101300 83
2002-11-26 09:28:31 51°22.303 2°38.248 5.6 295 9.8 101300 83
2002-11-26 09:28:36 51°22.322 2°38.238 5.4 291 9.8 101300 83
2002-11-26 09:28:40 51°22.336 2°38.23 6.4 291 9.8 101290 83
2002-11-26 09:28:46 51°22.359 2°38.218 7 295 9.8 101290 83
2002-11-26 09:28:51 51°22.377 2°38.207 6.6 290 9.8 101300 83
2002-11-26 09:28:56 51°22.396 2°38.197 6.7 293 9.8 101300 83
2002-11-26 09:29:00 51°22.411 2°38.19 7.2 291 9.9 101300 83
2002-11-26 09:29:06 51°22.433 2°38.178 6.9 294 9.9 101300 83
2002-11-26 09:29:11 51°22.452 2°38.168 7 295 9.8 101300 83
2002-11-26 09:29:16 51°22.47 2°38.158 6.4 293 9.8 101300 83
2002-11-26 09:29:20 51°22.485 2°38.15 6.2 295 9.8 101300 83
2002-11-26 09:29:26 51°22.507 2°38.138 6.3 295 9.8 101300 83
2002-11-26 09:29:31 51°22.525 2°38.128 5.9 293 9.8 101290 83
2002-11-26 09:29:36 51°22.544 2°38.118 5.9 286 9.8 101290 83
2002-11-26 09:29:41 51°22.563 2°38.108 6.8 296 9.9 101290 83
2002-11-26 09:29:46 51°22.581 2°38.098 7 291 9.9 101290 83
2002-11-26 09:29:51 51°22.599 2°38.088 6.2 293 9.9 101300 83
2002-11-26 09:29:56 51°22.617 2°38.079 6.2 292 9.9 101300 83
2002-11-26 09:30:00 51°22.632 2°38.07 5.5 302 9.9 101300 83
2002-11-26 09:30:06 51°22.654 2°38.059 6.3 285 9.9 101300 83
2002-11-26 09:30:11 51°22.673 2°38.048 6.3 284 9.9 101300 83
2002-11-26 09:30:16 51°22.691 2°38.039 7.1 292 9.9 101300 83
2002-11-26 09:30:20 51°22.706 2°38.031 6.9 296 9.9 101300 83
2002-11-26 09:30:26 51°22.729 2°38.019 6.2 291 9.9 101300 83
2002-11-26 09:30:31 51°22.747 2°38.008 5.5 295 9.9 101300 83
2002-11-26 09:30:36 51°22.766 2°37.999 6.4 300 9.9 101300 83
2002-11-26 09:30:40 51°22.781 2°37.99 5.8 295 9.9 101300 83
2002-11-26 09:30:46 51°22.803 2°37.978 5.2 288 9.9 101300 83
2002-11-26 09:30:51 51°22.821 2°37.968 5.3 288 9.9 101300 83
2002-11-26 09:30:56 51°22.84 2°37.958 5.6 286 9.9 101300 83
2002-11-26 09:31:01 51°22.859 2°37.948 6.7 294 9.9 101310 83
2002-11-26 09:31:06 51°22.877 2°37.938 5.6 293 9.9 101310 83
2002-11-26 09:31:11 51°22.896 2°37.928 6.1 292 9.9 101290 83
2002-11-26 09:31:16 51°22.914 2°37.917 6.3 297 9.9 101290 83
2002-11-26 09:31:20 51°22.929 2°37.908 5.7 291 9.9 101290 83
2002-11-26 09:31:26 51°22.951 2°37.896 6.2 299 9.9 101290 83
2002-11-26 09:31:31 51°22.97 2°37.886 5.4 295 9.9 101300 83
2002-11-26 09:31:36 51°22.988 2°37.876 5.4 288 9.9 101300 83
2002-11-26 09:31:40 51°23.003 2°37.867 6.3 286 9.9 101300 83
2002-11-26 09:31:46 51°23.025 2°37.855 6.7 290 9.9 101300 83
2002-11-26 09:31:51 51°23.043 2°37.845 6.2 290 10 101300 83
2002-11-26 09:31:56 51°23.062 2°37.835 6.9 297 10 101300 83
2002-11-26 09:32:00 51°23.076 2°37.827 6.2 293 9.8 101290 83
2002-11-26 09:32:06 51°23.099 2°37.815 6.5 292 9.8 101290 83
2002-11-26 09:32:11 51°23.117 2°37.805 6.1 296 10 101290 83
2002-11-26 09:32:16 51°23.136 2°37.795 6.4 300 10 101290 83
2002-11-26 09:32:20 51°23.15 2°37.786 5.9 297 10 101300 83
2002-11-26 09:32:26 51°23.172 2°37.774 6 292 10 101300 83
2002-11-26 09:32:31 51°23.191 2°37.764 6 292 10 101290 83
2002-11-26 09:32:36 51°23.209 2°37.752 5.3 292 10 101290 83
2002-11-26 09:32:41 51°23.228 2°37.741 4.7 296 10 101300 83
2002-11-26 09:32:46 51°23.246 2°37.73 5 295 10 101300 83
2002-11-26 09:32:51 51°23.264 2°37.719 4.3 286 10 101300 83
2002-11-26 09:32:56 51°23.283 2°37.709 5.6 290 10 101300 83
2002-11-26 09:33:00 51°23.297 2°37.699 5 287 10 101290 83
2002-11-26 09:33:06 51°23.319 2°37.687 6.5 295 10 101290 83
2002-11-26 09:33:11 51°23.337 2°37.675 6.2 290 10 101300 83
2002-11-26 09:33:16 51°23.356 2°37.665 6.8 294 10 101300 83
2002-11-26 09:33:20 51°23.37 2°37.656 6.3 290 10 101300 83
2002-11-26 09:33:26 51°23.392 2°37.644 6.5 293 10 101300 83
2002-11-26 09:33:31 51°23.41 2°37.633 7.3 292 10 101300 83
2002-11-26 09:33:36 51°23.428 2°37.622 6.5 293 10 101300 83
2002-11-26 09:33:40 51°23.443 2°37.613 6.7 297 10 101300 83
2002-11-26 09:33:46 51°23.465 2°37.6 5.3 286 10 101300 83
2002-11-26 09:33:51 51°23.483 2°37.59 6.7 298 10 101290 83
2002-11-26 09:33:56 51°23.501 2°37.578 5.8 297 10 101290 83
2002-11-26 09:34:00 51°23.516 2°37.57 6.4 287 10 101310 83
2002-11-26 09:34:06 51°23.538 2°37.557 6.3 290 10 101310 83
2002-11-26 09:34:11 51°23.556 2°37.546 6.1 298 10 101300 83
2002-11-26 09:34:16 51°23.574 2°37.536 5.4 294 10 101300 83
2002-11-26 09:34:20 51°23.589 2°37.528 5.2 303 10 101300 83
2002-11-26 09:34:26 51°23.611 2°37.515 5 287 10 101300 83
2002-11-26 09:34:31 51°23.629 2°37.504 5.6 291 10 101290 83
2002-11-26 09:34:36 51°23.647 2°37.493 5.5 293 10 101290 83
2002-11-26 09:34:40 51°23.662 2°37.484 6.2 293 10 101290 83
2002-11-26 09:34:46 51°23.684 2°37.471 7 288 10 101290 83
2002-11-26 09:34:51 51°23.703 2°37.46 7 293 10 101310 83
2002-11-26 09:34:56 51°23.721 2°37.449 6.8 294 10 101310 83
2002-11-26 09:35:01 51°23.739 2°37.438 6.6 291 10 101300 83
2002-11-26 09:35:06 51°23.758 2°37.427 7.1 288 10 101300 83
2002-11-26 09:35:11 51°23.776 2°37.414 6.8 292 10 101300 83
2002-11-26 09:35:16 51°23.794 2°37.402 6.8 289 10 101300 83
2002-11-26 09:35:20 51°23.808 2°37.392 6.5 289 10 101300 83
2002-11-26 09:35:26 51°23.829 2°37.377 7 284 10 101300 83
2002-11-26 09:35:31 51°23.847 2°37.365 7.1 291 10 101290 82
2002-11-26 09:35:36 51°23.865 2°37.351 7 291 10 101290 82
2002-11-26 09:35:40 51°23.88 2°37.341 6.5 294 10 101300 82
2002-11-26 09:35:46 51°23.901 2°37.325 6.8 289 10 101300 82
2002-11-26 09:35:51 51°23.919 2°37.31 6.8 289 10 101290 82
2002-11-26 09:35:56 51°23.936 2°37.296 6.3 293 10 101290 82
2002-11-26 09:36:01 51°23.953 2°37.281 6.3 289 9.9 101290 82
2002-11-26 09:36:06 51°23.97 2°37.266 6.2 284 9.9 101290 82
2002-11-26 09:36:11 51°23.988 2°37.251 6.2 283 9.9 101300 82
2002-11-26 09:36:16 51°24.005 2°37.235 6.6 290 9.9 101300 82
2002-11-26 09:36:20 51°24.018 2°37.223 8.1 302 9.9 101290 82
2002-11-26 09:36:26 51°24.039 2°37.204 7.7 300 9.9 101290 82
2002-11-26 09:36:31 51°24.056 2°37.188 6.8 300 10 101290 82
2002-11-26 09:36:36 51°24.073 2°37.173 7.7 299 10 101290 82
2002-11-26 09:36:40 51°24.087 2°37.161 7 294 10 101290 83
2002-11-26 09:36:46 51°24.108 2°37.142 7.6 292 10 101290 83
2002-11-26 09:36:51 51°24.125 2°37.127 7.5 289 10 101290 83
2002-11-26 09:36:56 51°24.142 2°37.111 6.7 296 10 101290 83
2002-11-26 09:37:01 51°24.159 2°37.096 7.3 285 10 101290 83
2002-11-26 09:37:06 51°24.176 2°37.08 7.4 292 10 101290 83
2002-11-26 09:37:11 51°24.193 2°37.065 6.9 289 10 101290 83
2002-11-26 09:37:16 51°24.211 2°37.049 7.5 293 10 101290 83
2002-11-26 09:37:20 51°24.225 2°37.037 7.6 287 10 101290 83
2002-11-26 09:37:26 51°24.246 2°37.018 7.7 287 10 101290 83
2002-11-26 09:37:31 51°24.263 2°37.003 8.2 283 10 101290 83
2002-11-26 09:37:36 51°24.28 2°36.988 8 289 10 101290 83
2002-11-26 09:37:40 51°24.294 2°36.976 7.4 285 10 101290 83
2002-11-26 09:37:46 51°24.314 2°36.957 8.2 285 10 101290 83
2002-11-26 09:37:51 51°24.331 2°36.941 8.9 285 10 101290 83
2002-11-26 09:37:56 51°24.348 2°36.926 8.3 288 10 101290 83
2002-11-26 09:38:01 51°24.365 2°36.911 7.9 291 10 101290 83
2002-11-26 09:38:06 51°24.382 2°36.894 7.5 297 10 101290 83
2002-11-26 09:38:11 51°24.399 2°36.878 6.6 295 9.9 101280 83
2002-11-26 09:38:16 51°24.416 2°36.862 7.2 289 9.9 101280 83
2002-11-26 09:38:20 51°24.429 2°36.85 7.5 285 9.9 101290 83
2002-11-26 09:38:26 51°24.45 2°36.831 8.6 291 9.9 101290 83
2002-11-26 09:38:31 51°24.467 2°36.815 7.7 291 9.9 101290 82
2002-11-26 09:38:36 51°24.484 2°36.799 7.1 293 9.9 101290 82
2002-11-26 09:38:40 51°24.498 2°36.787 7.4 292 9.9 101290 82
2002-11-26 09:38:46 51°24.519 2°36.77 6.7 293 9.9 101290 82
2002-11-26 09:38:51 51°24.536 2°36.755 6.2 290 9.9 101290 83
2002-11-26 09:38:56 51°24.554 2°36.741 7.1 284 9.9 101290 83
2002-11-26 09:39:01 51°24.572 2°36.727 7 289 9.9 101290 83
2002-11-26 09:39:06 51°24.589 2°36.713 7 285 9.9 101290 83
2002-11-26 09:39:11 51°24.606 2°36.699 6.6 283 9.9 101290 83
2002-11-26 09:39:16 51°24.624 2°36.685 7.4 292 9.9 101290 83
2002-11-26 09:39:20 51°24.638 2°36.673 7 291 10 101290 83
2002-11-26 09:39:26 51°24.659 2°36.656 7.9 287 10 101290 83
2002-11-26 09:39:31 51°24.677 2°36.641 7.9 292 9.9 101290 83
2002-11-26 09:39:36 51°24.694 2°36.627 7.9 289 9.9 101290 83
2002-11-26 09:39:40 51°24.708 2°36.616 7.3 291 9.9 101290 83
2002-11-26 09:39:46 51°24.729 2°36.599 7.3 288 9.9 101290 83
2002-11-26 09:39:51 51°24.747 2°36.586 8.1 283 9.9 101290 83
2002-11-26 09:39:56 51°24.764 2°36.573 8.1 294 9.9 101290 83
2002-11-26 09:40:01 51°24.782 2°36.559 7.8 288 9.9 101290 83
2002-11-26 09:40:06 51°24.801 2°36.547 7.2 292 9.9 101290 83
2002-11-26 09:40:11 51°24.818 2°36.535 7.2 295 9.9 101290 83
2002-11-26 09:40:16 51°24.836 2°36.525 7.3 295 9.9 101290 83
2002-11-26 09:40:20 51°24.851 2°36.516 6.6 296 9.9 101280 83
2002-11-26 09:40:26 51°24.873 2°36.504 7.1 295 9.9 101280 83
2002-11-26 09:40:31 51°24.891 2°36.494 6.3 293 9.9 101290 83
2002-11-26 09:40:36 51°24.91 2°36.484 6.8 298 9.9 101290 83
2002-11-26 09:40:41 51°24.928 2°36.473 6 295 9.9 101290 83
2002-11-26 09:40:46 51°24.947 2°36.464 6.9 296 9.9 101290 83
2002-11-26 09:40:51 51°24.965 2°36.453 6.5 291 9.9 101290 83
2002-11-26 09:40:56 51°24.984 2°36.443 6.9 291 9.9 101290 83
2002-11-26 09:41:00 51°24.999 2°36.435 6.8 293 9.9 101290 83
2002-11-26 09:41:06 51°25.021 2°36.423 6.2 293 9.9 101290 83
2002-11-26 09:41:11 51°25.039 2°36.412 6.2 291 9.9 101290 83
2002-11-26 09:41:16 51°25.058 2°36.403 6.2 294 9.9 101290 83
2002-11-26 09:41:21 51°25.076 2°36.392 6.2 296 9.9 101290 83
2002-11-26 09:41:26 51°25.094 2°36.382 6.9 292 9.9 101290 83
2002-11-26 09:41:31 51°25.113 2°36.371 7.5 297 9.9 101300 83
2002-11-26 09:41:36 51°25.131 2°36.36 7.4 300 9.9 101300 83
2002-11-26 09:41:41 51°25.149 2°36.349 6.8 296 9.9 101290 83
2002-11-26 09:41:46 51°25.167 2°36.339 6.1 299 9.9 101290 83
2002-11-26 09:41:51 51°25.185 2°36.329 6.1 294 9.9 101290 83
2002-11-26 09:41:56 51°25.203 2°36.318 5.9 300 9.9 101290 83
2002-11-26 09:42:00 51°25.218 2°36.31 5.1 302 9.9 101280 83
2002-11-26 09:42:06 51°25.24 2°36.298 5.5 299 9.9 101280 83
2002-11-26 09:42:11 51°25.258 2°36.287 4.4 303 9.9 101290 83
2002-11-26 09:42:16 51°25.277 2°36.278 5.5 297 9.9 101290 83
2002-11-26 09:42:20 51°25.291 2°36.269 5.5 297 9.9 101280 83
2002-11-26 09:42:26 51°25.313 2°36.257 6.1 299 9.9 101280 83
2002-11-26 09:42:31 51°25.332 2°36.246 5.1 292 9.9 101300 83
2002-11-26 09:42:36 51°25.351 2°36.236 5.5 302 9.9 101300 83
2002-11-26 09:42:41 51°25.369 2°36.226 5.4 293 9.9 101290 83
2002-11-26 09:42:46 51°25.387 2°36.216 5.3 301 9.9 101290 83
2002-11-26 09:42:51 51°25.406 2°36.206 5.4 300 9.9 101290 83
2002-11-26 09:42:56 51°25.424 2°36.196 4.6 283 9.9 101290 83
2002-11-26 09:43:00 51°25.439 2°36.188 6.1 294 9.9 101290 83
2002-11-26 09:43:06 51°25.461 2°36.175 7.2 296 9.9 101290 83
2002-11-26 09:43:11 51°25.479 2°36.165 6.9 297 10 101290 83
2002-11-26 09:43:16 51°25.498 2°36.155 6.2 299 10 101290 83
2002-11-26 09:43:20 51°25.512 2°36.147 6.4 300 10 101290 83
2002-11-26 09:43:26 51°25.534 2°36.135 4.9 305 10 101290 83
2002-11-26 09:43:31 51°25.552 2°36.125 5.2 304 10 101290 83
2002-11-26 09:43:36 51°25.571 2°36.115 5.8 300 10 101290 83